H1 CPF 2 NER 2023 11 17 8 321 01 glonass141 H2 1908801 9141 44850 2023 11 17 0 0 0 2023 11 20 23 45 0 900 1 1 0 0 0 1 H9 10 0 60265 0.00000 0 -18068010.627 -10925026.682 14320352.461 10 0 60265 900.00000 0 -19252399.320 -12010900.873 11653221.951 10 0 60265 1800.00000 0 -20266470.881 -12770362.995 8759750.443 10 0 60265 2700.00000 0 -21052746.460 -13217968.085 5696064.378 10 0 60265 3600.00000 0 -21559883.763 -13380142.963 2521649.499 10 0 60265 4500.00000 0 -21744938.410 -13293840.652 -701804.008 10 0 60265 5400.00000 0 -21575293.076 -13004757.931 -3911603.840 10 0 60265 6300.00000 0 -21030171.403 -12565191.457 -7045281.481 10 0 60265 7200.00000 0 -20101670.996 -12031623.593 -10041816.949 10 0 60265 8100.00000 0 -18795270.092 -11462140.899 -12842837.459 10 0 60265 9000.00000 0 -17129784.807 -10913795.568 -15393765.467 10 0 60265 9900.00000 0 -15136777.335 -10440022.760 -17644892.521 10 0 60265 10800.00000 0 -12859438.848 -10088224.433 -19552356.970 10 0 60265 11700.00000 0 -10350993.289 -9897623.080 -21079005.707 10 0 60265 12600.00000 0 -7672688.593 -9897477.237 -22195122.584 10 0 60265 13500.00000 0 -4891459.334 -10105734.958 -22879009.109 10 0 60265 14400.00000 0 -2077358.533 -10528182.687 -23117406.149 10 0 60265 15300.00000 0 699133.974 -11158125.692 -22905748.643 10 0 60265 16200.00000 0 3369814.326 -11976613.526 -22248248.807 10 0 60265 17100.00000 0 5871356.034 -12953200.778 -21157806.677 10 0 60265 18000.00000 0 8147701.970 -14047210.665 -19655750.299 10 0 60265 18900.00000 0 10152147.983 -15209447.684 -17771411.182 10 0 60265 19800.00000 0 11849032.361 -16384286.650 -15541543.816 10 0 60265 20700.00000 0 13214962.077 -17512049.551 -13009601.122 10 0 60265 21600.00000 0 14239526.371 -18531569.578 -10224880.475 10 0 60265 22500.00000 0 14925469.861 -19382833.954 -7241557.444 10 0 60265 23400.00000 0 15288320.109 -20009593.927 -4117626.599 10 0 60265 24300.00000 0 15355487.470 -20361831.906 -913770.475 10 0 60265 25200.00000 0 15164877.186 -20397981.892 2307820.900 10 0 60265 26100.00000 0 14763073.910 -20086809.943 5484656.624 10 0 60265 27000.00000 0 14203176.647 -19408875.892 8555154.118 10 0 60265 27900.00000 0 13542376.347 -18357515.240 11459827.528 10 0 60265 28800.00000 0 12839378.783 -16939300.334 14142432.570 10 0 60265 29700.00000 0 12151781.407 -15173961.691 16551046.248 10 0 60265 30600.00000 0 11533514.290 -13093772.719 18639061.407 10 0 60265 31500.00000 0 11032452.229 -10742423.205 20366077.863 10 0 60265 32400.00000 0 10688297.579 -8173427.884 21698674.056 10 0 60265 33300.00000 0 10530821.944 -5448135.247 22611045.454 10 0 60265 34200.00000 0 10578539.823 -2633418.047 23085498.343 10 0 60265 35100.00000 0 10837869.426 200860.302 23112790.279 10 0 60265 36000.00000 0 11302815.828 2984500.135 22692310.989 10 0 60265 36900.00000 0 11955190.116 5649632.495 21832100.262 10 0 60265 37800.00000 0 12765356.193 8133289.810 20548702.028 10 0 60265 38700.00000 0 13693475.107 10379775.168 18866856.586 10 0 60265 39600.00000 0 14691196.109 12342732.954 16819035.778 10 0 60265 40500.00000 0 15703724.933 13986835.554 14444828.672 10 0 60265 41400.00000 0 16672183.727 15289016.319 11790188.165 10 0 60265 42300.00000 0 17536164.412 16239197.351 8906551.734 10 0 60265 43200.00000 0 18236368.544 16840481.496 5849852.180 10 0 60265 44100.00000 0 18717222.469 17108800.171 2679436.739 10 0 60265 45000.00000 0 18929356.905 17072031.452 -543084.822 10 0 60265 45900.00000 0 18831845.209 16768625.312 -3755040.716 10 0 60265 46800.00000 0 18394104.310 16245793.947 -6893922.426 10 0 60265 47700.00000 0 17597376.194 15557343.852 -9898610.071 10 0 60265 48600.00000 0 16435725.427 14761241.813 -12710572.918 10 0 60265 49500.00000 0 14916508.706 13917018.557 -15275020.503 10 0 60265 50400.00000 0 13060294.865 13083120.899 -17541980.675 10 0 60265 51300.00000 0 10900237.235 12314325.474 -19467282.576 10 0 60265 52200.00000 0 8480923.585 11659324.490 -21013424.558 10 0 60265 53100.00000 0 5856751.152 11158586.477 -22150309.563 10 0 60265 54000.00000 0 3089894.393 10842583.081 -22855833.407 10 0 60265 54900.00000 0 247950.239 10730457.189 -23116314.521 10 0 60265 55800.00000 0 -2598640.771 10829188.649 -22926756.999 10 0 60265 56700.00000 0 -5379289.904 11133292.585 -22290942.257 10 0 60265 57600.00000 0 -8025959.892 11625062.507 -21221348.018 10 0 60265 58500.00000 0 -10475756.540 12275347.317 -19738896.741 10 0 60265 59400.00000 0 -12673304.810 13044828.631 -17872538.977 10 0 60265 60300.00000 0 -14572811.133 13885743.691 -15658680.305 10 0 60265 61200.00000 0 -16139727.025 14743980.362 -13140463.569 10 0 60265 62100.00000 0 -17351946.043 15561455.064 -10366920.894 10 0 60265 63000.00000 0 -18200485.760 16278672.665 -7392012.532 10 0 60265 63900.00000 0 -18689628.183 16837359.802 -4273571.767 10 0 60265 64800.00000 0 -18836514.772 17183060.222 -1072176.887 10 0 60265 65700.00000 0 -18670215.136 17267582.497 2150027.421 10 0 60265 66600.00000 0 -18230310.410 17051196.947 5330535.992 10 0 60265 67500.00000 0 -17565052.538 16504489.359 8407692.848 10 0 60265 68400.00000 0 -16729178.135 15609793.708 11321881.211 10 0 60265 69300.00000 0 -15781469.752 14362143.867 14016671.042 10 0 60265 70200.00000 0 -14782167.415 12769704.505 16439902.481 10 0 60265 71100.00000 0 -13790339.173 10853663.032 18544685.043 10 0 60265 72000.00000 0 -12861320.613 8647586.766 20290294.241 10 0 60265 72900.00000 0 -12044329.987 6196271.502 21642949.445 10 0 60265 73800.00000 0 -11380358.060 3554128.386 22576459.109 10 0 60265 74700.00000 0 -10900420.144 783174.833 23072721.883 10 0 60265 75600.00000 0 -10624242.736 -2049288.714 23122074.727 10 0 60265 76500.00000 0 -10559439.233 -4873221.669 22723481.734 10 0 60265 77400.00000 0 -10701209.098 -7618502.256 21884560.036 10 0 60265 78300.00000 0 -11032573.326 -10217594.126 20621441.863 10 0 60265 79200.00000 0 -11525136.996 -12608111.708 18958474.619 10 0 60265 80100.00000 0 -12140347.902 -14735179.050 16927763.578 10 0 60265 81000.00000 0 -12831199.567 -16553485.081 14568564.680 10 0 60265 81900.00000 0 -13544308.213 -18028950.224 11926537.691 10 0 60265 82800.00000 0 -14222277.294 -19139934.923 9052872.782 10 0 60265 83700.00000 0 -14806250.623 -19877939.374 6003306.314 10 0 60265 84600.00000 0 -15238546.627 -20247764.686 2837043.997 10 0 60265 85500.00000 0 -15465262.179 -20267128.199 -384388.006 10 0 60266 0.00000 0 -15438735.147 -19965748.665 -3598341.440 10 0 60266 900.00000 0 -15119760.169 -19383939.319 -6742271.738 10 0 60266 1800.00000 0 -14479462.323 -18570768.623 -9754962.228 10 0 60266 2700.00000 0 -13500747.548 -17581865.997 -12577727.595 10 0 60266 3600.00000 0 -12179266.436 -16476966.157 -15155567.690 10 0 60266 4500.00000 0 -10523848.856 -15317296.489 -17438249.694 10 0 60266 5400.00000 0 -8556389.300 -14162918.766 -19381296.234 10 0 60266 6300.00000 0 -6311186.329 -13070138.455 -20946859.378 10 0 60266 7200.00000 0 -3833762.775 -12089091.810 -22104462.887 10 0 60266 8100.00000 0 -1179215.403 -11261613.219 -22831598.021 10 0 60266 9000.00000 0 1589837.351 -10619473.040 -23114161.300 10 0 60266 9900.00000 0 4405623.977 -10183060.226 -22946725.906 10 0 60266 10800.00000 0 7197806.044 -9960564.870 -22332641.853 10 0 60266 11700.00000 0 9896174.076 -9947694.433 -21283963.463 10 0 60266 12600.00000 0 12433340.907 -10127934.691 -19821206.097 10 0 60266 13500.00000 0 14747320.487 -10473343.261 -17972937.472 10 0 60266 14400.00000 0 16783885.198 -10945841.063 -15775212.028 10 0 60266 15300.00000 0 18498604.096 -11498946.031 -13270859.954 10 0 60266 16200.00000 0 19858478.107 -12079874.763 -10508645.228 10 0 60266 17100.00000 0 20843105.256 -12631922.403 -7542309.594 10 0 60266 18000.00000 0 21445328.782 -13097019.414 -4429521.615 10 0 60266 18900.00000 0 21671342.847 -13418356.669 -1230751.741 10 0 60266 19800.00000 0 21540253.280 -13542967.600 1991904.316 10 0 60266 20700.00000 0 21083113.630 -13424158.242 5175930.679 10 0 60266 21600.00000 0 20341478.673 -13023682.631 8259601.317 10 0 60266 22500.00000 0 19365537.511 -12313572.003 11183171.555 10 0 60266 23400.00000 0 18211905.668 -11277540.926 13890028.224 10 0 60266 24300.00000 0 16941169.464 -9911911.394 16327776.773 10 0 60266 25200.00000 0 15615285.777 -8226016.011 18449245.086 10 0 60266 26100.00000 0 14294945.910 -6242063.104 20213385.599 10 0 60266 27000.00000 0 13037013.297 -3994468.777 21586059.392 10 0 60266 27900.00000 0 11892141.342 -1528682.771 22540688.264 10 0 60266 28800.00000 0 10902669.948 1100444.303 23058763.186 10 0 60266 29700.00000 0 10100887.640 3830686.088 23130200.132 10 0 60266 30600.00000 0 9507731.013 6594775.795 22753536.839 10 0 60266 31500.00000 0 9131975.258 9322956.707 21935966.760 10 0 60266 32400.00000 0 8969949.369 11945644.024 20693209.156 10 0 60266 33300.00000 0 9005788.058 14396089.401 19049217.025 10 0 60266 34200.00000 0 9212210.330 16612938.932 17035727.369 10 0 60266 35100.00000 0 9551792.760 18542579.365 14691661.125 10 0 60266 36000.00000 0 9978684.889 20141175.468 12062382.868 10 0 60266 36900.00000 0 10440695.371 21376313.714 9198833.261 10 0 60266 37800.00000 0 10881661.648 22228183.398 6156549.845 10 0 60266 38700.00000 0 11244003.458 22690245.179 2994594.298 10 0 60266 39600.00000 0 11471352.182 22769358.298 -225593.431 10 0 60266 40500.00000 0 11511144.219 22485360.408 -3441391.850 10 0 60266 41400.00000 0 11317067.553 21870117.087 -6590221.829 10 0 60266 42300.00000 0 10851256.449 20966080.700 -9610773.025 10 0 60266 43200.00000 0 10086139.581 19824419.319 -12444207.928 10 0 60266 44100.00000 0 9005861.402 18502794.865 -15035318.891 10 0 60266 45000.00000 0 7607214.715 17062884.788 -17333614.375 10 0 60266 45900.00000 0 5900043.149 15567752.548 -19294312.221 10 0 60266 46800.00000 0 3907094.919 14079178.640 -20879219.717 10 0 60266 47700.00000 0 1663332.649 12655065.456 -22057482.737 10 0 60266 48600.00000 0 -785272.791 11347025.915 -22806189.065 10 0 60266 49500.00000 0 -3383414.591 10198257.719 -23110814.148 10 0 60266 50400.00000 0 -6068518.875 9241792.693 -22965500.818 10 0 60266 51300.00000 0 -8773123.856 8499194.450 -22373167.905 10 0 60266 52200.00000 0 -11427470.073 7979758.385 -21345446.152 10 0 60266 53100.00000 0 -13962193.637 7680246.561 -19902443.227 10 0 60266 54000.00000 0 -16311010.291 7585167.277 -18072342.973 10 0 60266 54900.00000 0 -18413278.638 7667586.030 -15890847.253 10 0 60266 55800.00000 0 -20216335.990 7890432.142 -13400471.825 10 0 60266 56700.00000 0 -21677510.112 8208244.398 -10649710.469 10 0 60266 57600.00000 0 -22765723.779 8569280.648 -7692084.162 10 0 60266 58500.00000 0 -23462626.286 8917901.078 -4585094.341 10 0 60266 59400.00000 0 -23763206.038 9197123.513 -1389101.104 10 0 60266 60300.00000 0 -23675860.166 9351242.102 1833851.423 10 0 60266 61200.00000 0 -23221919.881 9328398.319 5021239.346 10 0 60266 62100.00000 0 -22434653.074 9082995.540 8111269.343 10 0 60266 63000.00000 0 -21357787.392 8577855.296 11044071.650 10 0 60266 63900.00000 0 -20043616.789 7786024.442 13762852.780 10 0 60266 64800.00000 0 -18550771.690 6692157.279 16214986.238 10 0 60266 65700.00000 0 -16941746.388 5293414.558 18353020.887 10 0 60266 66600.00000 0 -15280287.051 3599841.482 20135588.473 10 0 60266 67500.00000 0 -13628748.964 1634208.375 21528193.873 10 0 60266 68400.00000 0 -12045532.485 -568680.187 22503873.956 10 0 60266 69300.00000 0 -10582703.678 -2963180.165 23043713.345 10 0 60266 70200.00000 0 -9283897.653 -5494458.597 23137207.923 10 0 60266 71100.00000 0 -8182590.921 -8100533.115 22782469.538 10 0 60266 72000.00000 0 -7300813.893 -10714617.656 21986268.010 10 0 60266 72900.00000 0 -6648356.566 -13267678.994 20763909.254 10 0 60266 73800.00000 0 -6222500.244 -15691099.796 19138951.085 10 0 60266 74700.00000 0 -6008286.538 -17919339.136 17142761.066 10 0 60266 75600.00000 0 -5979312.700 -19892481.016 14813923.592 10 0 60266 76500.00000 0 -6099020.451 -21558565.536 12197506.182 10 0 60266 77400.00000 0 -6322424.738 -22875605.679 9344197.823 10 0 60266 78300.00000 0 -6598210.164 -23813205.236 6309334.835 10 0 60266 79200.00000 0 -6871106.997 -24353709.555 3151832.243 10 0 60266 80100.00000 0 -7084446.366 -24492839.976 -66958.993 10 0 60266 81000.00000 0 -7182786.131 -24239784.352 -3284446.776 10 0 60266 81900.00000 0 -7114495.405 -23616738.927 -6438021.016 10 0 60266 82800.00000 0 -6834186.950 -22657920.117 -9466280.525 10 0 60266 83700.00000 0 -6304892.800 -21408087.405 -12310238.749 10 0 60266 84600.00000 0 -5499889.108 -19920639.457 -14914483.655 10 0 60266 85500.00000 0 -4404091.058 -18255363.957 -17228267.996 10 0 60267 0.00000 0 -3014957.099 -16475936.614 -19206507.440 10 0 60267 900.00000 0 -1342861.775 -14647274.333 -20810667.308 10 0 60267 1800.00000 0 589078.179 -12832857.088 -22009517.431 10 0 60267 2700.00000 0 2745720.824 -11092128.515 -22779743.674 10 0 60267 3600.00000 0 5081128.128 -9478087.206 -23106401.471 10 0 60267 4500.00000 0 7540256.950 -8035169.016 -22983203.846 10 0 60267 5400.00000 0 10061041.323 -6797509.086 -22412638.527 10 0 60267 6300.00000 0 12576779.170 -5787655.794 -21405912.329 10 0 60267 7200.00000 0 15018723.695 -5015789.512 -19982724.478 10 0 60267 8100.00000 0 17318771.303 -4479477.508 -18170873.810 10 0 60267 9000.00000 0 19412133.868 -4163973.581 -16005708.099 10 0 60267 9900.00000 0 21239883.949 -4043047.985 -13529426.748 10 0 60267 10800.00000 0 22751267.014 -4080310.821 -10790251.004 10 0 60267 11700.00000 0 23905684.677 -4230971.321 -7841478.335 10 0 60267 12600.00000 0 24674266.819 -4443957.186 -4740439.943 10 0 60267 13500.00000 0 25040967.921 -4664303.167 -1547382.174 10 0 60267 14400.00000 0 25003142.952 -4835706.906 1675706.011 10 0 60267 15300.00000 0 24571580.081 -4903143.358 4866296.328 10 0 60267 16200.00000 0 23769990.202 -4815426.908 7962531.717 10 0 60267 17100.00000 0 22633975.974 -4527612.878 10904420.670 10 0 60267 18000.00000 0 21209524.619 -4003137.125 13634992.437 10 0 60267 18900.00000 0 19551088.324 -3215603.732 16101391.263 10 0 60267 19800.00000 0 17719332.942 -2150145.665 18255889.284 10 0 60267 20700.00000 0 15778648.991 -804301.197 20056799.431 10 0 60267 21600.00000 0 13794528.432 811630.909 21469271.844 10 0 60267 22500.00000 0 11830915.762 2674772.998 22465959.529 10 0 60267 23400.00000 0 9947642.714 4750380.293 23027541.413 10 0 60267 24300.00000 0 8198052.092 6993054.542 23143093.553 10 0 60267 25200.00000 0 6626908.370 9348410.728 22810301.765 10 0 60267 26100.00000 0 5268680.813 11755129.388 22035511.695 10 0 60267 27000.00000 0 4146269.664 14147311.230 20833614.985 10 0 60267 27900.00000 0 3270227.768 16457038.096 19227772.978 10 0 60267 28800.00000 0 2638509.782 18617035.454 17248982.188 10 0 60267 29700.00000 0 2236759.405 20563326.927 14935488.563 10 0 60267 30600.00000 0 2039122.784 22237771.176 12332060.411 10 0 60267 31500.00000 0 2009554.358 23590375.547 9489132.664 10 0 60267 32400.00000 0 2103560.569 24581289.676 6461837.842 10 0 60267 33300.00000 0 2270308.270 25182394.945 3308941.594 10 0 60267 34200.00000 0 2455008.840 25378422.175 91703.034 10 0 60267 35100.00000 0 2601476.913 25167549.455 -3127318.037 10 0 60267 36000.00000 0 2654754.745 24561453.787 -6285483.451 10 0 60267 36900.00000 0 2563689.951 23584813.272 -9321303.964 10 0 60267 37800.00000 0 2283355.970 22274279.973 -12175646.589 10 0 60267 38700.00000 0 1777211.030 20676966.174 -14792897.316 10 0 60267 39600.00000 0 1018902.331 18848507.647 -17122055.327 10 0 60267 40500.00000 0 -6362.715 16850785.588 -19117736.339 10 0 60267 41400.00000 0 -1300937.911 14749403.442 -20741064.635 10 0 60267 42300.00000 0 -2854391.011 12611025.250 -21960435.794 10 0 60267 43200.00000 0 -4643703.677 10500687.803 -22752134.925 10 0 60267 44100.00000 0 -6634011.301 8479199.775 -23100798.349 10 0 60267 45000.00000 0 -8779852.258 6600737.043 -22999709.894 10 0 60267 45900.00000 0 -11026874.670 4910734.735 -22450926.446 10 0 60267 46800.00000 0 -13313929.360 3444163.687 -21465230.773 10 0 60267 47700.00000 0 -15575461.424 2224262.501 -20061913.111 10 0 60267 48600.00000 0 -17744100.321 1261776.878 -18268386.342 10 0 60267 49500.00000 0 -19753340.148 554736.407 -16119642.795 10 0 60267 50400.00000 0 -21540197.933 88776.180 -13657563.839 10 0 60267 51300.00000 0 -23047738.964 -162012.380 -10930096.223 10 0 60267 52200.00000 0 -24227363.730 -233739.362 -7990311.727 10 0 60267 53100.00000 0 -25040761.282 -170941.385 -4895368.967 10 0 60267 54000.00000 0 -25461447.913 -24450.389 -1705398.041 10 0 60267 54900.00000 0 -25475827.627 151002.436 1517669.881 10 0 60267 55800.00000 0 -25083730.994 299345.310 4711304.877 10 0 60267 56700.00000 0 -24298410.954 365778.357 7813589.006 10 0 60267 57600.00000 0 -23145996.831 299329.247 10764411.953 10 0 60267 58500.00000 0 -21664430.358 55244.054 13506628.653 10 0 60267 59400.00000 0 -19901928.955 -402887.341 15987156.995 10 0 60267 60300.00000 0 -17915040.847 -1101360.645 18157995.130 10 0 60267 61200.00000 0 -15766373.231 -2055015.618 19977139.685 10 0 60267 62100.00000 0 -13522087.827 -3266379.988 21409388.236 10 0 60267 63000.00000 0 -11249267.284 -4725335.051 22427011.693 10 0 60267 63900.00000 0 -9013261.001 -6409317.607 23010284.626 10 0 60267 64800.00000 0 -6875119.319 -8284050.919 23147864.136 10 0 60267 65700.00000 0 -4889221.347 -10304775.688 22837010.435 10 0 60267 66600.00000 0 -3101193.612 -12417931.455 22083644.991 10 0 60267 67500.00000 0 -1546204.846 -14563220.359 20902244.775 10 0 60267 68400.00000 0 -247706.872 -16675969.263 19315573.878 10 0 60267 69300.00000 0 783326.580 -18689693.608 17354256.621 10 0 60267 70200.00000 0 1548631.735 -20538757.655 15056199.027 10 0 60267 71100.00000 0 2062347.674 -22161021.171 12465868.389 10 0 60267 72000.00000 0 2350182.954 -23500362.503 9633443.493 10 0 60267 72900.00000 0 2448090.748 -24508972.482 6613850.721 10 0 60267 73800.00000 0 2400508.003 -25149322.508 3465703.793 10 0 60267 74700.00000 0 2258232.814 -25395723.262 250167.285 10 0 60267 75600.00000 0 2076029.885 -25235407.264 -2970234.112 10 0 60267 76500.00000 0 1910065.870 -24669088.346 -6132837.048 10 0 60267 77400.00000 0 1815284.113 -23710973.086 -9176067.165 10 0 60267 78300.00000 0 1842831.192 -22388222.483 -12040647.997 10 0 60267 79200.00000 0 2037645.847 -20739885.617 -14670766.469 10 0 60267 80100.00000 0 2436314.063 -18815349.574 -17015170.997 10 0 60267 81000.00000 0 3065282.866 -16672370.635 -19028179.791 10 0 60267 81900.00000 0 3939510.020 -14374769.559 -20670578.784 10 0 60267 82800.00000 0 5061608.209 -11989888.050 -21910391.080 10 0 60267 83700.00000 0 6421521.070 -9585913.499 -22723502.587 10 0 60267 84600.00000 0 7996745.750 -7229184.470 -23094131.631 10 0 60267 85500.00000 0 9753093.328 -4981589.946 -23015133.528 10 0 60268 0.00000 0 11645955.407 -2898171.230 -22488134.668 10 0 60268 900.00000 0 13622024.964 -1025025.245 -21523493.573 10 0 60268 1800.00000 0 15621396.702 602401.192 -20140091.079 10 0 60268 2700.00000 0 17579962.138 1960559.746 -18364953.330 10 0 60268 3600.00000 0 19431996.388 3038538.183 -16232716.099 10 0 60268 4500.00000 0 21112829.090 3838259.420 -13784941.235 10 0 60268 5400.00000 0 22561487.290 4374135.628 -11069299.128 10 0 60268 6300.00000 0 23723199.599 4672194.168 -8138633.622 10 0 60268 7200.00000 0 24551656.849 4768714.332 -5049928.124 10 0 60268 8100.00000 0 25010934.855 4708434.329 -1863193.551 10 0 60268 9000.00000 0 25076999.283 4542405.878 1359699.883 10 0 60268 9900.00000 0 24738730.230 4325588.333 4556223.913 10 0 60268 10800.00000 0 23998424.426 4114284.903 7664403.024 10 0 60268 11700.00000 0 22871754.852 3963529.785 10624011.320 10 0 60268 12600.00000 0 21387190.243 3924536.722 13377732.489 10 0 60268 13500.00000 0 19584899.345 4042316.522 15872260.891 10 0 60268 14400.00000 0 17515186.004 4353563.656 18059323.266 10 0 60268 15300.00000 0 15236520.395 4884900.571 19896602.207 10 0 60268 16200.00000 0 12813247.994 5651553.279 21348544.684 10 0 60268 17100.00000 0 10313070.875 6656513.764 22387041.144 10 0 60268 18000.00000 0 7804404.931 7890224.644 22991963.064 10 0 60268 18900.00000 0 5353721.418 9330799.955 23151549.463 10 0 60268 19800.00000 0 3022981.665 10944773.979 22862635.398 10 0 60268 20700.00000 0 867269.919 12688348.272 22130718.152 10 0 60268 21600.00000 0 -1067278.804 14509086.613 20969859.538 10 0 60268 22500.00000 0 -2745170.982 16347989.027 19402425.455 10 0 60268 23400.00000 0 -4142797.437 18141860.108 17458666.651 10 0 60268 24300.00000 0 -5249175.578 19825874.378 15176147.458 10 0 60268 25200.00000 0 -6066160.308 21336232.719 12599032.066 10 0 60268 26100.00000 0 -6608114.779 22612799.443 9777240.758 10 0 60268 27000.00000 0 -6901054.645 23601609.731 6765491.201 10 0 60268 27900.00000 0 -6981301.598 24257141.876 3622242.462 10 0 60268 28800.00000 0 -6893702.764 24544257.996 408561.717 10 0 60268 29700.00000 0 -6689491.212 24439730.305 -2813064.376 10 0 60268 30600.00000 0 -6423878.343 23933287.192 -5979950.226 10 0 60268 31500.00000 0 -6153480.739 23028133.389 -9030439.235 10 0 60268 32400.00000 0 -5933691.444 21740920.800 -11905114.225 10 0 60268 33300.00000 0 -5816108.325 20101169.852 -14547965.621 10 0 60268 34200.00000 0 -5846129.925 18150164.731 -16907493.431 10 0 60268 35100.00000 0 -6060822.158 15939368.305 -18937720.459 10 0 60268 36000.00000 0 -6487147.648 13528423.016 -20599096.140 10 0 60268 36900.00000 0 -7140633.970 10982821.655 -21859272.700 10 0 60268 37800.00000 0 -8024538.216 8371345.849 -22693738.196 10 0 60268 38700.00000 0 -9129544.047 5763379.733 -23086294.033 10 0 60268 39600.00000 0 -10434004.634 3226211.397 -23029367.795 10 0 60268 40500.00000 0 -11904721.603 822434.893 -22524155.684 10 0 60268 41400.00000 0 -13498227.373 -1392439.014 -21580592.247 10 0 60268 42300.00000 0 -15162516.872 -3372064.164 -20217148.541 10 0 60268 43200.00000 0 -16839155.679 -5080946.540 -18460463.247 10 0 60268 44100.00000 0 -18465675.789 -6495668.951 -16344814.462 10 0 60268 45000.00000 0 -19978158.078 -7605603.418 -13911443.058 10 0 60268 45900.00000 0 -21313892.772 -8413083.520 -11207741.302 10 0 60268 46800.00000 0 -22414006.076 -8933031.735 -8286323.083 10 0 60268 47700.00000 0 -23225942.586 -9192059.707 -5203994.374 10 0 60268 48600.00000 0 -23705699.408 -9227081.511 -2020644.489 10 0 60268 49500.00000 0 -23819718.443 -9083500.300 1201919.913 10 0 60268 50400.00000 0 -23546357.884 -8813046.459 4401174.993 10 0 60268 51300.00000 0 -22876881.715 -8471359.743 7515090.586 10 0 60268 52200.00000 0 -21815926.360 -8115418.244 10483328.262 10 0 60268 53100.00000 0 -20381425.491 -7800923.107 13248403.555 10 0 60268 54000.00000 0 -18603996.586 -7579749.281 15756790.374 10 0 60268 54900.00000 0 -16525815.084 -7497569.495 17959946.993 10 0 60268 55800.00000 0 -14199023.036 -7591751.014 19815244.685 10 0 60268 56700.00000 0 -11683738.112 -7889613.157 21286782.212 10 0 60268 57600.00000 0 -9045744.978 -8407118.376 22346071.543 10 0 60268 58500.00000 0 -6353963.853 -9148051.689 22972582.610 10 0 60268 59400.00000 0 -3677799.893 -10103723.072 23154137.430 10 0 60268 60300.00000 0 -1084481.758 -11253205.920 22887146.517 10 0 60268 61200.00000 0 1363501.890 -12564102.651 22176683.143 10 0 60268 62100.00000 0 3610763.185 -13993806.841 21036393.724 10 0 60268 63000.00000 0 5611076.581 -15491210.789 19488245.331 10 0 60268 63900.00000 0 7329056.458 -16998788.808 17562114.127 10 0 60268 64800.00000 0 8741381.794 -18454970.734 15295221.372 10 0 60268 65700.00000 0 9837517.248 -19796707.643 12731426.396 10 0 60268 66600.00000 0 10619900.627 -20962123.151 9920388.871 10 0 60268 67500.00000 0 11103588.807 -21893139.497 6916615.321 10 0 60268 68400.00000 0 11315376.757 -22537967.922 3778407.439 10 0 60268 69300.00000 0 11292426.559 -22853357.889 566732.085 10 0 60268 70200.00000 0 11080464.143 -22806509.255 -2655965.179 10 0 60268 71100.00000 0 10731620.082 -22376565.284 -5826979.631 10 0 60268 72000.00000 0 10302006.191 -21555621.813 -8884575.553 10 0 60268 72900.00000 0 9849131.280 -20349208.238 -11769198.094 10 0 60268 73800.00000 0 9429266.528 -18776218.365 -14424644.117 10 0 60268 74700.00000 0 9094873.310 -16868292.648 -16799167.972 10 0 60268 75600.00000 0 8892203.763 -14668676.701 -18846499.581 10 0 60268 76500.00000 0 8859176.954 -12230603.334 -20526754.091 10 0 60268 77400.00000 0 9023621.761 -9615265.661 -21807214.704 10 0 60268 78300.00000 0 9401961.712 -6889466.127 -22662973.062 10 0 60268 79200.00000 0 9998398.104 -4123039.887 -23077414.657 10 0 60268 80100.00000 0 10804626.351 -1386160.429 -23042539.922 10 0 60268 81000.00000 0 11800097.706 1253360.028 -22559115.112 10 0 60268 81900.00000 0 12952815.304 3732662.857 -21636650.510 10 0 60268 82800.00000 0 14220630.759 5996220.301 -20293206.897 10 0 60268 83700.00000 0 15552986.317 7997899.333 -18555034.660 10 0 60268 84600.00000 0 16893028.853 9702627.119 -16456053.099 10 0 60268 85500.00000 0 18180006.201 11087590.034 -14037180.676 99